This demonstration page uses our WeatherBlox Daily Observations layout. Learn more.

Left ArrowRight Arrow

Hourly Observations for March 24, 2021

Temp ( °F °C ) Dew Point ( °F °C ) Humidity (%) Winds ( mph kmh ) Pressure ( in mb ) Visibility ( mi km ) Precip ( " mm )
12:15 am 00:15 Cloudy with Drizzle 39 4 35 1.9 86 86 NNW 21 33 29.83 1010 10 16 N/A
12:35 am 00:35 Cloudy with Drizzle 39 4 35 1.8 86 86 NNW 21 33 29.84 1010 10 16 N/A
12:55 am 00:55 Cloudy with Drizzle 39 3.8 35 1.7 86 86 NNW 18 30 29.84 1010 10 16 N/A
1:15 am 01:15 Cloudy 39 3.8 35 1.7 86 86 NNW 24 39 29.84 1010 10 16 N/A
1:35 am 01:35 Cloudy 39 3.7 35 1.6 86 86 NNW 23 37 29.85 1011 10 16 N/A
1:55 am 01:55 Cloudy 39 3.7 35 1.5 86 86 N 21 33 29.85 1011 10 16 N/A
2:15 am 02:15 Cloudy 39 3.8 35 1.6 86 86 N 18 30 29.85 1011 10 16 N/A
2:35 am 02:35 Cloudy 39 3.7 35 1.5 86 86 NNW 20 31 29.86 1011 10 16 N/A
2:55 am 02:55 Cloudy 39 3.9 35 1.5 85 85 NNW 24 39 29.86 1011 10 16 N/A
3:15 am 03:15 Cloudy 39 4 35 1.5 84 84 NNW 26 43 29.86 1011 10 16 N/A
3:35 am 03:35 Cloudy 39 4 35 1.5 84 84 NNW 24 39 29.86 1011 10 16 N/A
3:55 am 03:55 Cloudy 39 4 35 1.5 84 84 N 22 35 29.86 1011 10 16 N/A
4:15 am 04:15 Cloudy 39 4 34 1.3 83 83 N 21 33 29.86 1011 10 16 N/A
4:35 am 04:35 Cloudy 39 4 34 1.3 83 83 NNW 17 28 29.87 1011 10 16 N/A
4:55 am 04:55 Cloudy 39 3.8 34 1.1 83 83 N 16 26 29.87 1011 10 16 N/A
5:15 am 05:15 Cloudy 39 3.7 34 1 83 83 NNW 16 26 29.89 1012 10 16 N/A
5:35 am 05:35 Cloudy 38 3.3 34 1 85 85 NNW 13 20 29.90 1013 10 16 N/A
5:55 am 05:55 Partly Cloudy 37 3 33 0.7 85 85 NNW 12 19 29.92 1013 10 16 N/A
6:15 am 06:15 Clear 36 2.4 33 0.4 87 87 NW 8 13 29.93 1014 10 16 N/A
6:35 am 06:35 Clear 36 2 33 0.3 89 89 NW 8 13 29.95 1014 10 16 N/A
6:55 am 06:55 Clear 36 2 33 0.3 89 89 WNW 10 17 29.96 1014 10 16 N/A
7:15 am 07:15 Clear 35 1.6 32 0.1 90 90 WNW 10 17 29.96 1015 10 16 N/A
7:35 am 07:35 Sunny 35 1.7 32 0.1 89 89 WNW 10 17 29.97 1015 10 16 N/A
7:55 am 07:55 Sunny 35 1.7 32 undefined 89 89 NW 14 22 29.97 1015 10 16 N/A
8:15 am 08:15 Sunny 36 2.1 32 undefined 86 86 NW 13 20 29.96 1015 10 16 N/A
8:35 am 08:35 Sunny 37 2.6 32 0.1 84 84 NW 12 19 29.97 1015 10 16 N/A
8:55 am 08:55 Sunny 37 3 33 0.5 84 84 NNW 13 20 29.97 1015 10 16 N/A
9:15 am 09:15 Sunny 38 3.5 33 0.7 82 82 NNW 14 22 29.96 1015 10 16 N/A
9:35 am 09:35 Sunny 39 4 34 0.9 80 80 NNW 18 30 29.96 1014 10 16 N/A
9:55 am 09:55 Sunny 40 4.5 34 0.9 78 78 N 17 28 29.95 1014 10 16 N/A
10:15 am 10:15 Sunny 41 5 34 1.2 77 77 NNW 16 26 29.96 1014 10 16 N/A
10:35 am 10:35 Sunny 42 5.5 35 1.7 77 77 NNW 16 26 29.95 1014 10 16 N/A
10:55 am 10:55 Sunny 43 6 35 1.6 74 74 N 18 30 29.96 1015 10 16 N/A
11:15 am 11:15 Partly Cloudy 42 5.8 35 1.5 74 74 N 21 33 29.97 1015 10 16 N/A
11:35 am 11:35 Partly Cloudy 43 6 35 1.6 74 74 NNW 17 28 29.96 1015 10 16 N/A
11:55 am 11:55 Partly Cloudy 43 6.1 35 1.9 75 75 NNW 22 35 29.95 1014 10 16 N/A
12:15 pm 12:15 Partly Cloudy 44 6.6 36 2.2 74 74 N 14 22 29.95 1014 10 16 N/A
12:35 pm 12:35 Mostly Cloudy 44 6.8 35 1.9 71 71 N 17 28 29.95 1014 10 16 N/A
12:55 pm 12:55 Mostly Cloudy 45 7.4 36 2.1 69 69 N 13 20 29.96 1014 10 16 N/A
1:15 pm 13:15 Mostly Cloudy 45 7.2 35 1.8 69 69 N 14 22 29.97 1015 10 16 N/A
1:35 pm 13:35 Mostly Cloudy 47 8.1 36 2.4 68 68 N 13 20 29.96 1015 10 16 N/A
1:55 pm 13:55 Mostly Cloudy 47 8.1 36 2 66 66 N 10 17 29.95 1014 10 16 N/A
2:15 pm 14:15 Cloudy 46 8 35 1.4 63 63 N 12 19 29.95 1014 10 16 N/A
2:35 pm 14:35 Mostly Cloudy 48 8.9 35 1.7 61 61 N 14 22 29.93 1014 10 16 N/A
2:55 pm 14:55 Mostly Cloudy 48 8.8 36 2 63 63 N 15 24 29.91 1013 10 16 N/A
3:15 pm 15:15 Partly Cloudy 48 8.7 35 1.5 61 61 N 10 17 29.91 1013 10 16 N/A
3:35 pm 15:35 Partly Cloudy 48 8.9 35 1.7 61 61 NNE 10 17 29.92 1013 10 16 N/A
3:55 pm 15:55 Mostly Cloudy 48 8.8 35 1.4 60 60 N 10 17 29.91 1013 10 16 N/A
4:15 pm 16:15 Mostly Cloudy 48 9 35 1.6 60 60 N 9 15 29.91 1013 10 16 N/A
4:35 pm 16:35 Mostly Cloudy 48 9.1 34 1 57 57 N 10 17 29.91 1013 10 16 N/A
4:55 pm 16:55 Mostly Cloudy 48 8.8 34 0.9 58 58 NNE 10 17 29.90 1013 10 16 N/A
5:15 pm 17:15 Partly Cloudy 48 9 33 0.7 56 56 N 9 15 29.90 1013 10 16 N/A
5:35 pm 17:35 Mostly Cloudy 47 8.5 33 0.8 59 59 N 7 11 29.90 1012 10 16 N/A
5:55 pm 17:55 Mostly Cloudy 47 8.5 33 0.8 59 59 N 6 9 29.90 1012 10 16 N/A
6:15 pm 18:15 Cloudy 48 8.8 34 1.2 59 59 NNE 8 13 29.89 1012 10 16 N/A
6:35 pm 18:35 Partly Cloudy 47 8.2 34 1 61 61 NE 6 9 29.91 1013 10 16 N/A
6:55 pm 18:55 Partly Cloudy 46 7.8 34 1.2 63 63 NE 6 9 29.91 1013 10 16 N/A
7:15 pm 19:15 Partly Cloudy 45 7.3 35 1.5 67 67 NE 6 9 29.91 1013 10 16 N/A
7:35 pm 19:35 Sunny 44 6.8 35 1.5 69 69 ENE 6 9 29.91 1013 10 16 N/A
7:55 pm 19:55 Clear 43 6 35 1.7 74 74 ENE 6 9 29.92 1013 10 16 N/A
8:15 pm 20:15 Clear 41 5.2 36 2 80 80 NE 6 9 29.92 1013 10 16 N/A
8:35 pm 20:35 Clear 41 5 36 2 81 81 ENE 7 11 29.93 1013 10 16 N/A
8:55 pm 20:55 Clear 42 5.5 35 1.6 76 76 E 6 9 29.92 1013 10 16 N/A
9:15 pm 21:15 Clear 42 5.5 35 1.5 76 76 E 5 7 29.93 1014 10 16 N/A
9:35 pm 21:35 Clear 41 5.1 35 1.8 79 79 E 6 9 29.94 1014 10 16 N/A
9:55 pm 21:55 Clear 41 5 36 2.1 82 82 E 7 11 29.94 1014 10 16 N/A
10:15 pm 22:15 Clear 41 4.8 36 2 82 82 E 8 13 29.94 1014 10 16 N/A
10:35 pm 22:35 Partly Cloudy 40 4.6 36 2 83 83 ESE 7 11 29.94 1014 10 16 N/A
10:55 pm 22:55 Mostly Cloudy 40 4.4 36 2 85 85 ESE 6 9 29.94 1014 10 16 N/A
11:15 pm 23:15 Partly Cloudy 39 4 36 2 87 87 ESE 6 9 29.94 1014 10 16 N/A
11:35 pm 23:35 Partly Cloudy 38 3.5 35 1.8 89 89 ESE 3 6 29.93 1014 10 16 N/A
11:55 pm 23:55 Partly Cloudy 38 3.5 35 1.8 89 89 N N/A 29.92 1013 10 16 N/A

Powered by AerisWeather